Regional Weather Roundup
Issued by NWS Northern Indiana

Home | Current Version | Previous Version | Graphics & Text | Print | Product List | Glossary On
Versions: 1 2 3 4 5 6 7 8 9 10 11 12 13 14 15 16 17 18 19 20 21 22 23 24 25 26 27 28 29 30 31 32 33 34 35 36 37 38 39 40 41 42 43 44 45 46 47 48 49 50
317
ASUS43 KIWX 140010
RWRIWX

KIWX WEATHER ROUNDUP
NATIONAL WEATHER SERVICE NORTHERN INDIANA
700 PM EST WED DEC 13 2017

NOTE: "FAIR" INDICATES FEW OR NO CLOUDS BELOW 12,000 FEET WITH NO
SIGNIFICANT WEATHER AND/OR OBSTRUCTIONS TO VISIBILITY.

* THESE STATIONS ARE NOT UNDER NWS QUALITY CONTROL. THEY ALSO MAY NOT
  REPORT WEATHER SUCH AS PRECIPITATION OR FOG.

INZ001>027-140100-
NORTHERN INDIANA

CITY           SKY/WX    TMP DP  RH WIND       PRES   REMARKS
GARY*          CLOUDY    36  25  64 NW28G41   29.42R
VALPARAISO     CLOUDY    36  27  69 NW17G25   29.38R
6HR MIN TEMP:  35; 6HR MAX TEMP:  39; 6HR PCP: TRACE;

MICHIGAN CITY* FLURRIES  34  27  75 NW17G26   29.38R WCI  23
LAPORTE*       CLOUDY    33  26  76 NW22      29.37R WCI  21
KNOX*          CLOUDY    34  30  86 NW20G29   29.35R WCI  22
SOUTH BEND     LGT SNOW  32  30  92 NW23G30   29.33R FOG     WCI  19
6HR MIN TEMP:  27; 6HR MAX TEMP:  33; 6HR PCP:  0.05;

ELKHART*       LGT SNOW  34  30  86 W21G29    29.30R WCI  22
GOSHEN         MIX PCPN  34  31  88 W18       29.29S WCI  23
6HR MIN TEMP:  28; 6HR MAX TEMP:  34; 6HR PCP:  0.03;

MONTICELLO*    CLOUDY    37  29  74 W25G32    29.39R
6HR MIN TEMP:  33; 6HR MAX TEMP:  39;

LOGANSPORT*    CLOUDY    36  32  87 W22G31    29.38R
ROCHESTER*     MIX PCPN  37  32  81 W17G33    29.35R
WARSAW*        CLOUDY    34  32  93 W20G28    29.31R WCI  22
AUBURN*        LGT SNOW  32  30  93 S3        29.30F
FORT WAYNE     LGT SNOW  33  32  96 SW16      29.31F FOG     WCI  23
6HR MIN TEMP:  28; 6HR MAX TEMP:  33; 6HR PCP:  0.07;

HUNTINGTON*    DRIZZLE   33  32  96 W18       29.32S WCI  22
6HR MIN TEMP:  30; 6HR MAX TEMP:  33;

PERU/GRISSOM   MOCLDY    37  37  99 W20       29.35R
6HR MIN TEMP:  33; 6HR MAX TEMP:  38; 6HR PCP:  0.01;

MARION*        CLOUDY    35  32  88 W25       29.36R WCI  23
6HR MIN TEMP:  15; 6HR MAX TEMP:  63;


$$
INZ028>050-140100-
CENTRAL INDIANA

CITY           SKY/WX    TMP DP  RH WIND       PRES   REMARKS
LAFAYETTE      CLOUDY    38  29  70 W23G38    29.44R
6HR MIN TEMP:  34; 6HR MAX TEMP:  41; 6HR PCP: TRACE;

KOKOMO*        CLOUDY    39  32  76 W30G37    29.37R
6HR MIN TEMP:  33; 6HR MAX TEMP:  39; 6HR PCP: TRACE;

MUNCIE*        CLOUDY    40  30  67 W22G35    29.36F
6HR MIN TEMP:  33; 6HR MAX TEMP:  40; 6HR PCP: TRACE;

INDIANAPOLIS   CLOUDY    42  32  67 W35G43    29.46R
6HR MIN TEMP:  35; 6HR MAX TEMP:  44; 6HR PCP: TRACE;


$$
MIZ043>046-050>051-056>058-064>065-071>073-077>080-140100-
SOUTHWEST LOWER MICHIGAN

CITY           SKY/WX    TMP DP  RH WIND       PRES   REMARKS
BATTLE CREEK   LGT SNOW  22  20  92 E9        29.33R VSB 1   WCI  12
6HR MIN TEMP:  22; 6HR MAX TEMP:  25; 6HR PCP:  0.10;

BENTON HARBOR  SNOW      33  29  85 NW17G32   29.33R VSB 1/2 WCI  22
6HR MIN TEMP:  27; 6HR MAX TEMP:  35; 6HR PCP:  0.13;

COLDWATER*     LGT SNOW  25  24  95 SE7       29.30S WCI  17
6HR MIN TEMP:  24; 6HR MAX TEMP:  27;

HILLSDALE*     LGT SNOW  23  21  93 E12       29.30F WCI  12
HOLLAND        LGT SNOW  21  17  84 NE13      29.38R FOG     WCI   9
6HR MIN TEMP:  21; 6HR MAX TEMP:  26; 6HR PCP:  0.10;

GRAND RAPIDS   LGT SNOW  19  16  88 NE15      29.39R VSB 3/4 WCI   5
6HR MIN TEMP:  19; 6HR MAX TEMP:  21; 6HR PCP:  0.17;

KALAMAZOO      LGT SNOW  24  21  88 NE5       29.32R VSB 1   WCI  18
6HR MIN TEMP:  24; 6HR MAX TEMP:  26; 6HR PCP:  0.15;

STURGIS*       LGT SNOW  26  25  96 E3        29.28S
6HR MIN TEMP:  25; 6HR MAX TEMP:  28; 6HR PCP:  0.02;

THREE RIVERS*  FLURRIES  27  25  91 E5        29.30S WCI  22
6HR MIN TEMP:  27; 6HR MAX TEMP:  29;


$$
OHZ001>008-015>018-024>025-140100-
NORTHWEST OHIO

CITY           SKY/WX    TMP DP  RH WIND       PRES   REMARKS
WAUSEON*       LGT SNOW  25  27 100 SE12      29.34F VSB 3/4 WCI  14
DEFIANCE       LGT SNOW  28  25  88 S12       29.33F FOG     WCI  18
6HR MIN TEMP:  25; 6HR MAX TEMP:  29; 6HR PCP:  0.02;

FINDLAY        LGT SNOW  27  23  85 S16       29.36F VSB 3/4 WCI  15
6HR MIN TEMP:  24; 6HR MAX TEMP:  28; 6HR PCP: TRACE;

TOLEDO EXPRESS LGT SNOW  25  24  96 SE7       29.37F VSB 3/4 WCI  17
6HR MIN TEMP:  21; 6HR MAX TEMP:  26; 6HR PCP:  0.04;

TOLEDO METCALF LGT SNOW  25  21  85 SE13      29.39F FOG     WCI  14
6HR MIN TEMP:  22; 6HR MAX TEMP:  25; 6HR PCP:  0.02;

LIMA           LGT SNOW  29  27  92 S16G25    29.35F FOG     WCI  17
6HR MIN TEMP:  24; 6HR MAX TEMP:  28; 6HR PCP: TRACE;


$$
AND FOR LAKE MICHIGAN COASTAL AND OPEN LAKE BUOY OBSERVATIONS

STATION/POSITION TEMP    WIND        PRES    VSBY  WAVE
                 AIR SEA DIR/SP/G                  HT/PER
                 (F)     (DEG/KT/KT) (MB)    (MI)  (FT/S)
CALUMET HARBOR    33     290/ 14/ 24  995.9R
MICHIGAN CITY     35     290/ 31/ 36   N/A
BURNS HARBOR      35     310/ 26      995.9
SAINT JOSEPH      33     320/ 22/ 29  994.9

$$
&&




USA.gov is the U.S. government's official web portal to all federal, state and local government web resources and services.